STARLINK-35266, 65804

Orbit data source: Space-Track

STARLINK-35266, 65804 is a payload satellite owned by SpaceX/Seattle (US) in SSO that was launched on Fri, 26 Sep 2025 UTC via an FALCON 9 launch vehicle from the Air Force Western Test Range (AFWTR). Payload-class satellites include a variety of spacecraft equipped with specific instruments for various scientific and technological missions. These include communications satellites like Starlink; space stations such as the ISS; scientific satellites like the Hubble; Earth observation satellites from companies like Planet Labs, Umbra, and HawkEye 360; GPS; miniature CubeSats for education and research; and military/defense satellites.

Loading next visibility...
Identifier
65804, 2025-218P
Orbit
SSO
Country
Flag of USUS
Related business
Manufacturer
SpaceX/Seattle
Mission
Operational Commercial Communications
Bus & Motor
STARLINK V2MO, Unknown motor
Mass
575 kg wet, ~530 kg dry
Launch date (UTC)
2025-09-26 (9 months ago)
Launch vehicle
FALCON 9
Launch site
Air Force Western Test Range (AFWTR)
Object type
Payload
Rocket body
Debris
Shape & HBR
Box + 2 Pan, 17.7 m
Radar Cross Section
36.964 m², Large (>1 m²)

Expand to show TLE details & history
Last TLE update: 12 hours ago

TLE from 12 hours ago
0 STARLINK-35266
1 65804U 25218P   26171.34505843 -.00002306  00000-0 -15587-3 0  9992
2 65804  97.3413  32.9958 0002920  76.0889 284.0663 15.05666419 40410
Epoch: 2026-06-20T08:16Z
TLE epoch observation values (Epoch: 2026-06-20T08:16:53.048Z)
Latitude
-0.00003°
Longitude
0.21375°
Altitude
552.042 km
Speed
7.586 km/s
True Right ascension
02h 11m 58s
True Declination
0° 00' 00"
Sunlit
Object was in daylight at epoch
Visualization orbit readout
Latitude
Unknown
Longitude
Unknown
Altitude
Unknown
Speed
Unknown
Apparent Right ascension
Unknown
Apparent Declination
Unknown
Sunlit
N/A
Visualization observer readout
Local Sidereal Time
07:19:19
Azimuth
Unknown
Elevation
Unknown
Doppler factor
Unknown
Orbital elements
Apogee altitude
548.465 km
Perigee altitude
544.421 km
Semi-major axis
6,924.58 km
Eccentricity
0.00029
Inclination
97.3413°
RAAN
32.9958°
Arg. of periapsis
76.0889°
True anomaly
284.03384°
Mean anomaly
284.0663°
Eccentric anomaly
284.05007°
Mean motion
3.76663 °/min
Orbital period
95.58 mins
BSTAR
-0.00015587
Loading maneuver chart data...
Computing Atmospheric mass density...
Loading historical data...
Loading historical data...
Loading historical data...
Loading historical data...
Loading historical data...
Loading historical data...
Loading historical data...

Documentation

Showing up to 5 results
|